Regional Weather Roundup
Issued by NWS Goodland, KS

Home | Current Version | Previous Version | Text Only | Print | Product List | Glossary Off
Versions: 1 2 3 4 5 6 7 8 9 10 11 12 13 14 15 16 17 18 19 20 21 22 23 24 25 26 27 28 29 30 31 32 33 34 35 36 37 38 39 40 41 42 43 44 45 46 47 48 49 50

000
ASUS43 KGLD 262159
RWRGLD

GOODLAND FORECAST AREA HOURLY WEATHER ROUNDUP
NATIONAL WEATHER SERVICE GOODLAND KS
400 PM MDT THU MAY 26 2016

...OFFICIAL OBSERVATIONS...

CITY           SKY/WX    TMP DP  RH WIND       PRES   REMARKS
GOODLAND KS    NOT AVBL
HILL CITY KS   CLOUDY    74  55  51 SE12      29.72R
IMPERIAL NEB   MOSUNNY   76  42  29 NE23G30   29.75F
MCCOOK NEB     PTSUNNY   76  59  55 E18G26    29.73F
AKRON CO       CLOUDY    67  41  38 E21G26    29.81F
BURLINGTON CO  MOSUNNY   73  51  46 NE16      29.74F
LIMON CO       CLOUDY    63  45  51 E10       29.81R
$$

...UNOFFICIAL OBSERVATIONS...

CITY           SKY/WX    TMP DP  RH WIND       PRES   REMARKS
GOVE KS          N/A     74  32  21 MISG        N/A
SHARON SPRINGS   N/A     77  60  54 NE9G20      N/A
KIT CARSON CO    N/A     71  53  53 MISG        N/A
YUMA CO          N/A     70  46  42 NE13G21     N/A
$$




USA.gov is the U.S. government's official web portal to all federal, state and local government web resources and services.